AB9BZ Weather Reports


time (UTC)temp
F
wind
direction
speed
knots
gust
knots
rain 1hr
in
rain 24hr
in
rain mn
in
humidity
%
barometer
mb
20260504050502 56 180 2.6 3.5 0.00 0.00 0.00 74 986.0
20260504045510 55 113 0.0 0.9 0.00 0.00 0.00 74 986.1
20260504044520 56 149 1.7 2.6 0.00 0.00 0.00 73 986.1
20260504043507 57 122 0.9 2.6 0.00 0.00 0.00 72 986.0
20260504042517 57 124 2.6 3.5 0.00 0.00 0.00 72 986.0
20260504041505 57 178 1.7 3.5 0.00 0.00 0.00 71 986.0
20260504040514 57 134 0.9 2.6 0.00 0.00 0.00 70 986.1
20260504035502 58 159 1.7 2.6 0.00 0.00 0.00 69 986.3
20260504034510 58 161 2.6 3.5 0.00 0.00 0.00 68 986.3
20260504033500 58 145 2.6 3.5 0.00 0.00 0.00 68 986.6
20260504032508 59 166 2.6 4.3 0.00 0.00 0.00 67 986.6
20260504031456 59 168 2.6 5.2 0.00 0.00 0.00 67 986.7
20260504030505 59 177 1.7 3.5 0.00 0.00 0.00 66 986.8
20260504025512 60 159 2.6 3.5 0.00 0.00 0.00 64 986.8
20260504024502 60 207 1.7 3.5 0.00 0.00 0.00 64 986.7
20260504023511 60 152 1.7 2.6 0.00 0.00 0.00 64 986.7
20260504022459 60 150 1.7 2.6 0.00 0.00 0.00 63 986.6
20260504021508 61 187 2.6 3.5 0.00 0.00 0.00 62 986.5
20260504020517 61 127 1.7 4.3 0.00 0.00 0.00 61 986.5
20260504015505 62 159 2.6 3.5 0.00 0.00 0.00 60 986.3
20260504014513 62 114 1.7 4.3 0.00 0.00 0.00 59 986.3
20260504013503 62 171 2.6 3.5 0.00 0.00 0.00 58 986.1
20260504012511 63 156 2.6 5.2 0.00 0.00 0.00 57 986.1
20260504011500 63 143 1.7 2.6 0.00 0.00 0.00 56 986.0
20260504010529 64 109 1.7 3.5 0.00 0.00 0.00 55 986.1
20260504005457 64 85 1.7 3.5 0.00 0.00 0.00 54 985.9
20260504004505 65 113 2.6 5.2 0.00 0.00 0.00 53 986.1
20260504003513 65 166 3.5 5.2 0.00 0.00 0.00 52 986.0
20260504002502 66 99 2.6 3.5 0.00 0.00 0.00 51 986.1
20260504001510 66 173 2.6 5.2 0.00 0.00 0.00 51 986.0
20260504000520 67 125 2.6 6.1 0.00 0.00 0.00 50 986.0
20260503235507 67 109 3.5 5.2 0.00 0.00 0.00 50 986.0
20260503234536 67 136 2.6 3.5 0.00 0.00 0.00 49 986.1
20260503233506 67 150 2.6 5.2 0.00 0.00 0.00 48 985.9
20260503232512 68 139 3.5 6.1 0.00 0.00 0.00 48 986.0
20260503231502 68 104 2.6 2.6 0.00 0.00 0.00 47 986.2
20260503230510 68 174 4.3 8.7 0.00 0.00 0.00 45 986.3
20260503225459 70 154 6.1 10.4 0.00 0.00 0.00 44 986.4
20260503224507 70 142 4.3 7.8 0.00 0.00 0.00 43 986.6
20260503223515 71 160 5.2 9.6 0.00 0.00 0.00 42 986.6
20260503222505 71 170 6.1 8.7 0.00 0.00 0.00 42 986.7
20260503221512 71 173 4.3 7.8 0.00 0.00 0.00 42 986.9
20260503220503 71 116 4.3 7.8 0.00 0.00 0.00 42 987.0
20260503215509 70 148 5.2 8.7 0.00 0.00 0.00 42 986.9
20260503214518 70 188 6.1 8.7 0.00 0.00 0.00 42 987.1
20260503213528 70 114 4.3 8.7 0.00 0.00 0.00 41 987.3
20260503212515 68 166 5.2 8.7 0.00 0.00 0.00 42 987.6
20260503211506 70 137 3.5 6.1 0.00 0.00 0.00 41 987.6
20260503210512 66 162 5.2 7.8 0.00 0.00 0.00 44 987.8
20260503205502 67 115 4.3 9.6 0.00 0.00 0.00 43 988.1
20260503204509 67 157 8.7 13.9 0.00 0.00 0.00 43 988.2
20260503203518 66 151 5.2 8.7 0.00 0.00 0.00 44 988.4
20260503202507 68 171 5.2 12.2 0.00 0.00 0.00 43 988.5
20260503201514 67 130 7.0 12.2 0.00 0.00 0.00 43 988.7
20260503200524 70 136 7.0 11.3 0.00 0.00 0.00 42 988.7
20260503195512 68 120 6.1 8.7 0.00 0.00 0.00 43 988.9
20260503194520 67 185 9.6 13.0 0.00 0.00 0.00 44 988.9
20260503193509 67 151 7.0 9.6 0.00 0.00 0.00 50 988.9
20260503192517 65 169 7.0 11.3 0.00 0.00 0.00 52 989.2
20260503191506 64 146 7.0 13.0 0.00 0.00 0.00 53 989.4
20260503190515 63 161 6.1 9.6 0.00 0.00 0.00 55 989.6
20260503185544 62 166 5.2 7.8 0.00 0.00 0.00 57 989.9
20260503184513 61 143 6.1 10.4 0.00 0.00 0.00 59 990.1
20260503183521 56 179 7.0 9.6 0.00 0.00 0.00 65 990.3
20260503182531 56 142 6.1 7.8 0.00 0.00 0.00 66 990.7
20260503181519 56 149 6.1 7.8 0.00 0.00 0.00 67 990.8
20260503180507 55 159 5.2 7.8 0.00 0.00 0.00 70 991.4
20260503175512 55 156 5.2 10.4 0.00 0.00 0.00 72 992.1
20260503174520 54 144 4.3 6.1 0.00 0.00 0.00 72 992.2
20260503173510 54 146 5.2 8.7 0.00 0.00 0.00 76 992.6
20260503172539 53 148 4.3 7.0 0.00 0.00 0.00 75 992.9
20260503171507 53 171 4.3 7.8 0.00 0.00 0.00 77 993.1
20260503170516 52 138 5.2 7.0 0.00 0.00 0.00 80 993.2
20260503150518 57 171 3.5 7.0 0.00 0.00 0.00 57 993.8
20260503130522 52 132 3.5 5.2 0.00 0.00 0.00 60 994.5
20260503110524 46 89 1.7 3.5 0.00 0.00 0.00 66 994.2
20260503081552 45 121 0.9 2.6 0.00 0.00 0.00 63 994.8
20260503080521 44 140 1.7 2.6 0.00 0.00 0.00 63 994.8
20260503072534 45 148 1.7 2.6 0.00 0.00 0.00 61 994.9
20260503071523 45 160 0.9 2.6 0.00 0.00 0.00 61 995.0
20260503070531 46 97 1.7 3.5 0.00 0.00 0.00 59 995.0
20260503054503 45 132 1.7 3.5 0.00 0.00 0.00 61 995.7
20260503053512 45 183 0.9 3.5 0.00 0.00 0.00 62 995.9
20260503052500 44 50 0.9 2.6 0.00 0.00 0.00 63 995.9